Seleccionar fecha


sábado, 23 junio, 2018

Fecha Temperaturas Humedad relativa Presión atmosférica Precipitaciones Dirección viento Velocidad del viento Velocidad de racha Iluminancia
11:57 PM27,1 ºC32 %957 hPa0,00 l/m2 67,5º ENE 1,29 m/s3,13 m/s2.2 Lux
11:52 PM27,0 ºC33 %957 hPa0,00 l/m2 247,5º OSO 1,83 m/s4,58 m/s2.2 Lux
11:47 PM27,3 ºC30 %957 hPa0,00 l/m2 135º SE 2,59 m/s6,26 m/s2.2 Lux
11:42 PM27,8 ºC30 %957 hPa0,00 l/m2 225º SO 1,83 m/s6,10 m/s2.2 Lux
11:37 PM27,8 ºC29 %957 hPa0,00 l/m2 0º N 2,61 m/s7,79 m/s2.2 Lux
11:32 PM27,7 ºC29 %957 hPa0,00 l/m2 337,5º NNO 1,84 m/s4,09 m/s2.2 Lux
11:27 PM27,0 ºC31 %957 hPa0,00 l/m2 0º N 1,92 m/s3,85 m/s2.3 Lux
11:22 PM27,8 ºC29 %957 hPa0,00 l/m2 337,5º NNO 1,87 m/s5,06 m/s2.2 Lux
11:17 PM27,4 ºC30 %957 hPa0,00 l/m2 225º SO 2,05 m/s6,58 m/s2.3 Lux
11:12 PM25,8 ºC36 %957 hPa0,00 l/m2 337,5º NNO 1,97 m/s3,61 m/s2.3 Lux
11:07 PM26,1 ºC35 %957 hPa0,00 l/m2 67,5º ENE 0,22 m/s1,77 m/s2.2 Lux
11:02 PM27,7 ºC30 %957 hPa0,00 l/m2 135º SE 0,32 m/s2,09 m/s2.2 Lux
10:57 PM26,8 ºC30 %957 hPa0,00 l/m2 157,5º SSE 1,83 m/s4,58 m/s2.2 Lux
10:52 PM25,6 ºC37 %957 hPa0,00 l/m2 225º SO 0,85 m/s4,90 m/s2.3 Lux
10:47 PM26,0 ºC36 %957 hPa0,00 l/m2 67,5º ENE 0,00 m/s0,08 m/s2.3 Lux
10:42 PM26,0 ºC36 %957 hPa0,00 l/m2 337,5º NNO 0,01 m/s0,24 m/s2.2 Lux
10:37 PM25,7 ºC37 %957 hPa0,00 l/m2 67,5º ENE 0,18 m/s1,20 m/s2.2 Lux
10:32 PM26,0 ºC36 %957 hPa0,00 l/m2 225º SO 0,02 m/s0,24 m/s2.2 Lux
10:27 PM26,5 ºC35 %957 hPa0,00 l/m2 315º NO 0,31 m/s1,53 m/s2.3 Lux
10:22 PM26,6 ºC35 %957 hPa0,00 l/m2 337,5º NNO 0,02 m/s0,24 m/s2.3 Lux
10:17 PM27,2 ºC32 %957 hPa0,00 l/m2 67,5º ENE 2,34 m/s5,46 m/s2.2 Lux
10:12 PM27,2 ºC31 %957 hPa0,00 l/m2 45º NE 0,00 m/s0,00 m/s2.2 Lux
10:07 PM27,2 ºC32 %957 hPa0,00 l/m2 135º SE 0,52 m/s2,09 m/s2.3 Lux
10:02 PM27,6 ºC32 %957 hPa0,00 l/m2 337,5º NNO 1,99 m/s3,05 m/s2.5 Lux
09:57 PM27,8 ºC30 %957 hPa0,00 l/m2 337,5º NNO 0,73 m/s3,53 m/s3 Lux
09:52 PM28,3 ºC29 %957 hPa0,00 l/m2 45º NE 1,77 m/s4,66 m/s4 Lux
09:47 PM28,9 ºC24 %956 hPa0,00 l/m2 67,5º ENE 2,58 m/s4,82 m/s5.4 Lux
09:42 PM28,9 ºC24 %956 hPa0,00 l/m2 225º SO 1,75 m/s3,69 m/s7.8 Lux
09:37 PM28,9 ºC24 %956 hPa0,00 l/m2 157,5º SSE 3,01 m/s4,66 m/s11.6 Lux
09:32 PM29,2 ºC23 %956 hPa0,00 l/m2 225º SO 2,66 m/s4,01 m/s19.1 Lux
09:27 PM29,2 ºC24 %956 hPa0,00 l/m2 202,5º SSO 2,29 m/s3,85 m/s28.2 Lux
09:22 PM29,2 ºC24 %956 hPa0,00 l/m2 225º SO 2,20 m/s3,53 m/s41 Lux
09:17 PM29,1 ºC24 %956 hPa0,00 l/m2 157,5º SSE 2,36 m/s6,10 m/s55.7 Lux
09:12 PM29,2 ºC24 %956 hPa0,00 l/m2 157,5º SSE 2,41 m/s4,09 m/s82.2 Lux
09:07 PM29,4 ºC24 %956 hPa0,00 l/m2 337,5º NNO 3,36 m/s6,90 m/s104.1 Lux
09:02 PM29,5 ºC23 %956 hPa0,00 l/m2 315º NO 3,53 m/s5,62 m/s135.4 Lux
08:57 PM29,4 ºC24 %956 hPa0,00 l/m2 337,5º NNO 3,60 m/s6,42 m/s163.7 Lux
08:52 PM29,6 ºC24 %956 hPa0,00 l/m2 225º SO 4,09 m/s7,31 m/s201.3 Lux
08:47 PM29,7 ºC23 %956 hPa0,00 l/m2 337,5º NNO 3,89 m/s6,34 m/s239.4 Lux
08:42 PM29,8 ºC23 %956 hPa0,00 l/m2 225º SO 4,22 m/s7,07 m/s294.7 Lux
08:37 PM29,9 ºC24 %956 hPa0,00 l/m2 0º N 3,76 m/s5,38 m/s332.9 Lux
08:32 PM30,1 ºC23 %955 hPa0,00 l/m2 337,5º NNO 3,31 m/s5,06 m/s370.5 Lux
08:27 PM30,0 ºC23 %956 hPa0,00 l/m2 225º SO 3,08 m/s5,30 m/s444.7 Lux
08:22 PM30,1 ºC23 %955 hPa0,00 l/m2 225º SO 3,73 m/s5,46 m/s502.5 Lux
08:17 PM30,2 ºC23 %955 hPa0,00 l/m2 315º NO 3,37 m/s5,06 m/s556.9 Lux
08:12 PM30,5 ºC22 %955 hPa0,00 l/m2 225º SO 3,51 m/s5,62 m/s603.5 Lux
08:07 PM30,4 ºC22 %955 hPa0,00 l/m2 225º SO 3,33 m/s5,46 m/s620.3 Lux
08:02 PM30,5 ºC22 %955 hPa0,00 l/m2 225º SO 4,26 m/s6,58 m/s674.9 Lux
07:57 PM30,6 ºC22 %955 hPa0,00 l/m2 225º SO 3,67 m/s6,18 m/s736.7 Lux
07:52 PM30,7 ºC22 %955 hPa0,00 l/m2 225º SO 2,99 m/s4,58 m/s736.7 Lux
07:47 PM30,8 ºC23 %955 hPa0,00 l/m2 225º SO 3,59 m/s5,06 m/s782.6 Lux
07:42 PM30,8 ºC22 %955 hPa0,00 l/m2 202,5º SSO 4,03 m/s6,66 m/s887.7 Lux
07:37 PM31,0 ºC23 %955 hPa0,00 l/m2 225º SO 4,56 m/s7,31 m/s980.4 Lux
07:32 PM31,1 ºC23 %955 hPa0,00 l/m2 0º N 4,21 m/s6,34 m/s980.4 Lux
07:27 PM31,2 ºC23 %955 hPa0,00 l/m2 337,5º NNO 3,24 m/s5,06 m/s1087.9 Lux
07:22 PM31,7 ºC22 %955 hPa0,00 l/m2 225º SO 3,88 m/s6,42 m/s1213.3 Lux
07:17 PM31,8 ºC22 %955 hPa0,00 l/m2 337,5º NNO 2,54 m/s3,85 m/s1360.7 Lux
07:12 PM31,7 ºC22 %955 hPa0,00 l/m2 315º NO 2,60 m/s5,14 m/s1415.6 Lux
07:07 PM31,7 ºC23 %956 hPa0,00 l/m2 337,5º NNO 2,06 m/s4,98 m/s1535.5 Lux
07:02 PM31,3 ºC23 %955 hPa0,00 l/m2 0º N 2,80 m/s4,58 m/s1535.5 Lux
06:57 PM31,5 ºC22 %956 hPa0,00 l/m2 225º SO 3,81 m/s7,47 m/s1535.5 Lux
06:52 PM31,0 ºC24 %956 hPa0,00 l/m2 225º SO 4,01 m/s6,66 m/s1670.6 Lux
06:47 PM31,4 ºC23 %955 hPa0,00 l/m2 225º SO 5,60 m/s9,80 m/s1823.7 Lux
06:42 PM31,4 ºC24 %956 hPa0,00 l/m2 337,5º NNO 4,43 m/s12,61 m/s1823.7 Lux
06:37 PM31,5 ºC23 %956 hPa0,00 l/m2 225º SO 6,01 m/s9,63 m/s1998 Lux
06:32 PM31,5 ºC24 %956 hPa0,00 l/m2 157,5º SSE 5,75 m/s11,48 m/s1908 Lux
06:27 PM31,2 ºC24 %956 hPa0,00 l/m2 225º SO 5,87 m/s11,40 m/s2094.2 Lux
06:22 PM31,4 ºC24 %956 hPa0,00 l/m2 225º SO 6,36 m/s10,84 m/s2094.2 Lux
06:17 PM31,2 ºC24 %956 hPa0,00 l/m2 225º SO 6,27 m/s9,80 m/s2197.4 Lux
06:12 PM31,7 ºC24 %956 hPa0,00 l/m2 0º N 6,13 m/s11,40 m/s2308 Lux
06:07 PM31,9 ºC24 %956 hPa0,00 l/m2 315º NO 5,12 m/s10,60 m/s2426.9 Lux
06:02 PM31,8 ºC25 %956 hPa0,00 l/m2 247,5º OSO 4,20 m/s5,86 m/s2426.9 Lux
05:57 PM32,0 ºC25 %956 hPa0,00 l/m2 337,5º NNO 4,25 m/s5,94 m/s2554.9 Lux
05:52 PM31,7 ºC26 %956 hPa0,00 l/m2 225º SO 3,28 m/s5,22 m/s2692.9 Lux
05:47 PM31,5 ºC25 %956 hPa0,00 l/m2 0º N 4,36 m/s9,23 m/s2554.9 Lux
05:42 PM31,7 ºC26 %956 hPa0,00 l/m2 225º SO 4,73 m/s11,88 m/s2692.9 Lux
05:37 PM31,8 ºC26 %956 hPa0,00 l/m2 225º SO 4,27 m/s10,84 m/s2841.9 Lux
05:32 PM31,7 ºC26 %956 hPa0,00 l/m2 225º SO 4,71 m/s8,51 m/s3178.1 Lux
05:27 PM31,6 ºC26 %956 hPa0,00 l/m2 337,5º NNO 4,24 m/s8,91 m/s3178.1 Lux
05:22 PM31,7 ºC26 %956 hPa0,00 l/m2 315º NO 4,38 m/s9,31 m/s3368.1 Lux
05:17 PM31,9 ºC27 %956 hPa0,00 l/m2 225º SO 3,68 m/s5,30 m/s3178.1 Lux
05:12 PM32,2 ºC26 %956 hPa0,00 l/m2 225º SO 4,03 m/s9,71 m/s3368.1 Lux
05:07 PM32,3 ºC25 %956 hPa0,00 l/m2 225º SO 3,56 m/s6,82 m/s3575 Lux
05:02 PM31,9 ºC26 %956 hPa0,00 l/m2 45º NE 2,83 m/s4,58 m/s3575 Lux
04:57 PM31,6 ºC27 %956 hPa0,00 l/m2 45º NE 3,38 m/s5,62 m/s3368.1 Lux
04:52 PM31,4 ºC27 %956 hPa0,00 l/m2 225º SO 3,84 m/s5,78 m/s3575 Lux
04:47 PM31,5 ºC26 %956 hPa0,00 l/m2 0º N 3,83 m/s6,58 m/s3575 Lux
04:42 PM31,9 ºC25 %956 hPa0,00 l/m2 225º SO 4,05 m/s5,38 m/s3003.2 Lux
04:37 PM31,6 ºC26 %956 hPa0,00 l/m2 157,5º SSE 4,16 m/s7,79 m/s3368.1 Lux
04:32 PM31,8 ºC26 %956 hPa0,00 l/m2 315º NO 4,50 m/s8,11 m/s3800.8 Lux
04:27 PM31,9 ºC27 %956 hPa0,00 l/m2 337,5º NNO 4,11 m/s6,02 m/s4047.8 Lux
04:22 PM31,9 ºC26 %956 hPa0,00 l/m2 157,5º SSE 4,94 m/s10,04 m/s4047.8 Lux
04:17 PM32,0 ºC26 %956 hPa0,00 l/m2 337,5º NNO 4,29 m/s6,82 m/s4047.8 Lux
04:12 PM32,4 ºC26 %956 hPa0,00 l/m2 225º SO 4,19 m/s9,07 m/s4318.8 Lux
04:07 PM31,6 ºC26 %956 hPa0,00 l/m2 247,5º OSO 3,82 m/s9,39 m/s4318.8 Lux
04:02 PM31,8 ºC27 %957 hPa0,00 l/m2 337,5º NNO 3,94 m/s7,07 m/s4616.8 Lux
03:57 PM32,1 ºC26 %957 hPa0,00 l/m2 225º SO 4,01 m/s5,06 m/s4616.8 Lux
03:52 PM32,4 ºC26 %957 hPa0,00 l/m2 225º SO 3,69 m/s5,78 m/s4945.6 Lux
03:47 PM32,4 ºC26 %957 hPa0,00 l/m2 337,5º NNO 3,73 m/s7,47 m/s4318.8 Lux
03:42 PM31,7 ºC27 %957 hPa0,00 l/m2 0º N 3,22 m/s6,66 m/s4318.8 Lux
03:37 PM32,3 ºC26 %957 hPa0,00 l/m2 315º NO 4,86 m/s8,35 m/s4945.6 Lux
03:32 PM32,3 ºC26 %957 hPa0,00 l/m2 337,5º NNO 3,58 m/s6,74 m/s4945.6 Lux
03:27 PM32,3 ºC26 %957 hPa0,00 l/m2 225º SO 3,11 m/s4,50 m/s4616.8 Lux
03:22 PM31,8 ºC27 %957 hPa0,00 l/m2 135º SE 3,76 m/s5,86 m/s4616.8 Lux
03:17 PM32,1 ºC26 %957 hPa0,00 l/m2 225º SO 4,28 m/s7,87 m/s4945.6 Lux
03:12 PM32,3 ºC26 %957 hPa0,00 l/m2 225º SO 3,28 m/s6,34 m/s4945.6 Lux
03:07 PM32,1 ºC26 %957 hPa0,00 l/m2 0º N 2,92 m/s3,85 m/s4945.6 Lux
03:02 PM31,5 ºC27 %957 hPa0,00 l/m2 225º SO 3,94 m/s10,04 m/s4945.6 Lux
02:57 PM31,7 ºC26 %957 hPa0,00 l/m2 225º SO 4,25 m/s7,87 m/s4945.6 Lux
02:52 PM32,2 ºC25 %957 hPa0,00 l/m2 315º NO 4,26 m/s6,99 m/s5309.4 Lux
02:47 PM31,8 ºC26 %957 hPa0,00 l/m2 225º SO 3,41 m/s4,66 m/s4945.6 Lux
02:42 PM31,8 ºC25 %957 hPa0,00 l/m2 247,5º OSO 4,23 m/s7,07 m/s5309.4 Lux
02:37 PM32,0 ºC24 %957 hPa0,00 l/m2 247,5º OSO 3,80 m/s5,94 m/s5309.4 Lux
02:32 PM32,0 ºC25 %957 hPa0,00 l/m2 225º SO 3,74 m/s5,54 m/s5309.4 Lux
02:27 PM31,9 ºC25 %958 hPa0,00 l/m2 315º NO 3,22 m/s5,30 m/s5309.4 Lux
02:22 PM31,6 ºC25 %958 hPa0,00 l/m2 157,5º SSE 4,54 m/s7,15 m/s5309.4 Lux
02:17 PM31,7 ºC24 %958 hPa0,00 l/m2 247,5º OSO 4,61 m/s6,82 m/s5309.4 Lux
02:12 PM32,2 ºC24 %958 hPa0,00 l/m2 337,5º NNO 3,57 m/s10,28 m/s5309.4 Lux
02:07 PM32,4 ºC23 %958 hPa0,00 l/m2 315º NO 3,67 m/s6,26 m/s5713.1 Lux
02:02 PM32,6 ºC22 %958 hPa0,00 l/m2 337,5º NNO 2,97 m/s4,98 m/s5309.4 Lux
01:57 PM32,5 ºC24 %958 hPa0,00 l/m2 45º NE 2,02 m/s3,85 m/s5309.4 Lux
01:52 PM32,1 ºC24 %958 hPa0,00 l/m2 157,5º SSE 2,62 m/s4,50 m/s5309.4 Lux
01:47 PM32,2 ºC24 %958 hPa0,00 l/m2 337,5º NNO 2,06 m/s3,85 m/s5309.4 Lux
01:42 PM32,2 ºC24 %958 hPa0,00 l/m2 225º SO 2,06 m/s3,53 m/s5713.1 Lux
01:37 PM33,5 ºC22 %958 hPa0,00 l/m2 45º NE 2,34 m/s3,53 m/s4945.6 Lux
01:32 PM32,6 ºC24 %958 hPa0,00 l/m2 315º NO 1,20 m/s3,13 m/s5713.1 Lux
01:27 PM32,1 ºC25 %958 hPa0,00 l/m2 225º SO 0,94 m/s2,89 m/s5713.1 Lux
01:22 PM31,3 ºC27 %958 hPa0,00 l/m2 45º NE 1,17 m/s2,65 m/s5309.4 Lux
01:17 PM31,0 ºC28 %958 hPa0,00 l/m2 135º SE 1,79 m/s3,53 m/s5309.4 Lux
01:12 PM31,3 ºC28 %958 hPa0,00 l/m2 315º NO 2,11 m/s3,69 m/s5309.4 Lux
01:07 PM30,6 ºC28 %958 hPa0,00 l/m2 337,5º NNO 1,77 m/s3,05 m/s5713.1 Lux
01:02 PM30,8 ºC28 %958 hPa0,00 l/m2 157,5º SSE 2,26 m/s5,30 m/s5309.4 Lux
12:57 PM30,8 ºC27 %958 hPa0,00 l/m2 225º SO 2,20 m/s4,34 m/s5309.4 Lux
12:52 PM30,1 ºC28 %958 hPa0,00 l/m2 337,5º NNO 1,95 m/s3,61 m/s5309.4 Lux
12:47 PM30,5 ºC26 %959 hPa0,00 l/m2 337,5º NNO 3,03 m/s6,34 m/s4945.6 Lux
12:42 PM30,7 ºC26 %958 hPa0,00 l/m2 225º SO 2,72 m/s4,90 m/s5309.4 Lux
12:37 PM30,5 ºC26 %958 hPa0,00 l/m2 337,5º NNO 2,88 m/s6,34 m/s5713.1 Lux
12:32 PM30,5 ºC26 %959 hPa0,00 l/m2 315º NO 2,91 m/s5,14 m/s5309.4 Lux
12:27 PM30,1 ºC26 %958 hPa0,00 l/m2 247,5º OSO 2,10 m/s4,01 m/s5309.4 Lux
12:22 PM30,0 ºC26 %958 hPa0,00 l/m2 225º SO 2,74 m/s5,38 m/s5309.4 Lux
12:17 PM30,0 ºC26 %959 hPa0,00 l/m2 337,5º NNO 3,25 m/s5,94 m/s5309.4 Lux
12:12 PM30,0 ºC26 %959 hPa0,00 l/m2 202,5º SSO 2,83 m/s5,06 m/s4616.8 Lux
12:07 PM29,9 ºC27 %959 hPa0,00 l/m2 225º SO 2,69 m/s4,50 m/s4945.6 Lux
12:02 PM29,7 ºC27 %959 hPa0,00 l/m2 0º N 2,13 m/s4,09 m/s4945.6 Lux
11:57 AM30,1 ºC27 %959 hPa0,00 l/m2 225º SO 2,44 m/s4,74 m/s4945.6 Lux
11:52 AM30,4 ºC27 %959 hPa0,00 l/m2 157,5º SSE 1,90 m/s4,09 m/s4318.8 Lux
11:47 AM30,4 ºC29 %959 hPa0,00 l/m2 337,5º NNO 1,51 m/s2,97 m/s4945.6 Lux
11:42 AM30,4 ºC31 %959 hPa0,00 l/m2 157,5º SSE 0,90 m/s2,57 m/s4318.8 Lux
11:37 AM30,1 ºC35 %959 hPa0,00 l/m2 202,5º SSO 0,30 m/s1,85 m/s4318.8 Lux
11:32 AM29,0 ºC37 %959 hPa0,00 l/m2 157,5º SSE 0,05 m/s0,32 m/s4318.8 Lux
11:27 AM29,9 ºC34 %959 hPa0,00 l/m2 337,5º NNO 0,40 m/s3,13 m/s4318.8 Lux
11:22 AM29,2 ºC35 %959 hPa0,00 l/m2 0º N 0,10 m/s1,12 m/s4047.8 Lux
11:17 AM28,6 ºC38 %959 hPa0,00 l/m2 337,5º NNO 0,02 m/s0,24 m/s4616.8 Lux
11:12 AM27,7 ºC40 %959 hPa0,00 l/m2 135º SE 0,98 m/s3,21 m/s4047.8 Lux
11:07 AM26,8 ºC42 %959 hPa0,00 l/m2 337,5º NNO 0,96 m/s5,06 m/s4318.8 Lux
11:02 AM28,3 ºC39 %959 hPa0,00 l/m2 0º N 0,59 m/s2,65 m/s4047.8 Lux
10:57 AM28,3 ºC39 %959 hPa0,00 l/m2 67,5º ENE 0,08 m/s0,72 m/s4047.8 Lux
10:52 AM27,4 ºC42 %959 hPa0,00 l/m2 225º SO 0,01 m/s0,08 m/s3800.8 Lux
10:47 AM26,3 ºC44 %959 hPa0,00 l/m2 67,5º ENE 0,01 m/s0,16 m/s3800.8 Lux
10:42 AM27,8 ºC41 %959 hPa0,00 l/m2 45º NE 0,01 m/s0,08 m/s4047.8 Lux
10:37 AM26,5 ºC44 %959 hPa0,00 l/m2 135º SE 0,06 m/s0,48 m/s3800.8 Lux
10:32 AM27,0 ºC42 %959 hPa0,00 l/m2 67,5º ENE 0,15 m/s1,36 m/s3800.8 Lux
10:27 AM26,6 ºC43 %959 hPa0,00 l/m2 337,5º NNO 0,16 m/s1,61 m/s3800.8 Lux
10:22 AM26,7 ºC43 %959 hPa0,00 l/m2 67,5º ENE 0,00 m/s0,08 m/s3575 Lux
10:17 AM26,6 ºC44 %959 hPa0,00 l/m2 45º NE 0,00 m/s0,08 m/s3575 Lux
10:12 AM26,1 ºC45 %959 hPa0,00 l/m2 67,5º ENE 0,01 m/s0,16 m/s3575 Lux
10:07 AM26,5 ºC44 %959 hPa0,00 l/m2 135º SE 0,07 m/s0,64 m/s3178.1 Lux
10:02 AM25,7 ºC47 %959 hPa0,00 l/m2 45º NE 0,00 m/s0,08 m/s3178.1 Lux
09:57 AM25,3 ºC48 %959 hPa0,00 l/m2 337,5º NNO 0,01 m/s0,08 m/s3178.1 Lux
09:52 AM25,4 ºC48 %959 hPa0,00 l/m2 67,5º ENE 0,10 m/s0,64 m/s3003.2 Lux
09:47 AM25,7 ºC46 %959 hPa0,00 l/m2 45º NE 0,00 m/s0,00 m/s2841.9 Lux
09:42 AM25,7 ºC47 %959 hPa0,00 l/m2 0º N 0,00 m/s0,00 m/s2841.9 Lux
09:37 AM24,4 ºC51 %959 hPa0,00 l/m2 67,5º ENE 0,12 m/s1,20 m/s2554.9 Lux
09:32 AM23,8 ºC51 %959 hPa0,00 l/m2 45º NE 0,00 m/s0,08 m/s2308 Lux
09:27 AM24,3 ºC51 %959 hPa0,00 l/m2 337,5º NNO 0,00 m/s0,08 m/s2426.9 Lux
09:22 AM24,9 ºC47 %959 hPa0,00 l/m2 0º N 0,00 m/s0,00 m/s2308 Lux
09:17 AM25,1 ºC44 %959 hPa0,00 l/m2 157,5º SSE 0,00 m/s0,00 m/s1908 Lux
09:12 AM25,1 ºC44 %959 hPa0,00 l/m2 225º SO 0,00 m/s0,00 m/s2094.2 Lux
09:07 AM23,7 ºC48 %959 hPa0,00 l/m2 45º NE 0,00 m/s0,08 m/s1823.7 Lux
09:02 AM23,5 ºC49 %959 hPa0,00 l/m2 45º NE 0,00 m/s0,08 m/s1601 Lux
08:57 AM23,8 ºC48 %959 hPa0,00 l/m2 0º N 0,00 m/s0,00 m/s1535.5 Lux
08:52 AM23,9 ºC48 %959 hPa0,00 l/m2 67,5º ENE 0,00 m/s0,08 m/s1415.6 Lux
08:47 AM23,4 ºC49 %959 hPa0,00 l/m2 45º NE 0,00 m/s0,00 m/s1308.8 Lux
08:42 AM22,4 ºC52 %959 hPa0,00 l/m2 45º NE 0,00 m/s0,00 m/s1213.3 Lux
08:37 AM22,6 ºC52 %959 hPa0,00 l/m2 0º N 0,00 m/s0,08 m/s1087.9 Lux
08:32 AM22,9 ºC51 %959 hPa0,00 l/m2 67,5º ENE 0,00 m/s0,00 m/s948 Lux
08:27 AM22,5 ºC52 %959 hPa0,00 l/m2 0º N 0,00 m/s0,00 m/s917.2 Lux
08:22 AM21,9 ºC54 %959 hPa0,00 l/m2 45º NE 0,00 m/s0,00 m/s782.6 Lux
08:17 AM22,0 ºC53 %959 hPa0,00 l/m2 67,5º ENE 0,00 m/s0,08 m/s620.3 Lux
08:12 AM21,0 ºC56 %959 hPa0,00 l/m2 45º NE 0,00 m/s0,00 m/s490.1 Lux
08:07 AM20,6 ºC57 %959 hPa0,00 l/m2 90º E 0,00 m/s0,00 m/s387.3 Lux
08:02 AM20,2 ºC58 %959 hPa0,00 l/m2 67,5º ENE 0,00 m/s0,00 m/s340 Lux
07:57 AM19,9 ºC59 %959 hPa0,00 l/m2 67,5º ENE 0,02 m/s0,24 m/s283.4 Lux
07:52 AM19,6 ºC59 %959 hPa0,00 l/m2 315º NO 0,11 m/s0,88 m/s188.5 Lux
07:47 AM19,5 ºC60 %959 hPa0,00 l/m2 0º N 0,06 m/s0,48 m/s143.3 Lux
07:42 AM19,4 ºC60 %959 hPa0,00 l/m2 135º SE 0,08 m/s0,48 m/s121.4 Lux
07:37 AM19,3 ºC60 %959 hPa0,00 l/m2 0º N 0,27 m/s1,45 m/s101.5 Lux
07:32 AM19,5 ºC60 %959 hPa0,00 l/m2 337,5º NNO 0,08 m/s0,56 m/s78.7 Lux
07:27 AM19,5 ºC60 %959 hPa0,00 l/m2 67,5º ENE 0,15 m/s0,80 m/s63.8 Lux
07:22 AM19,4 ºC61 %959 hPa0,00 l/m2 0º N 0,06 m/s0,72 m/s49.1 Lux
07:17 AM19,2 ºC62 %959 hPa0,00 l/m2 0º N 0,00 m/s0,00 m/s35.8 Lux
07:12 AM19,1 ºC64 %959 hPa0,00 l/m2 45º NE 0,00 m/s0,00 m/s25.3 Lux
07:07 AM19,3 ºC62 %959 hPa0,00 l/m2 0º N 0,00 m/s0,00 m/s17 Lux
07:02 AM19,5 ºC62 %959 hPa0,00 l/m2 157,5º SSE 0,00 m/s0,00 m/s10.7 Lux
06:57 AM19,8 ºC61 %959 hPa0,00 l/m2 67,5º ENE 0,00 m/s0,00 m/s7.6 Lux
06:52 AM20,2 ºC60 %959 hPa0,00 l/m2 45º NE 0,00 m/s0,00 m/s4.8 Lux
06:47 AM20,3 ºC60 %959 hPa0,00 l/m2 45º NE 0,02 m/s0,24 m/s3.6 Lux
06:42 AM20,2 ºC60 %959 hPa0,00 l/m2 67,5º ENE 0,00 m/s0,00 m/s2.8 Lux
06:37 AM20,1 ºC60 %959 hPa0,00 l/m2 135º SE 0,00 m/s0,00 m/s2.4 Lux
06:32 AM20,1 ºC60 %959 hPa0,00 l/m2 247,5º OSO 0,00 m/s0,00 m/s2.3 Lux
06:27 AM20,2 ºC59 %959 hPa0,00 l/m2 247,5º OSO 0,00 m/s0,00 m/s2.2 Lux
06:22 AM20,1 ºC59 %959 hPa0,00 l/m2 67,5º ENE 0,00 m/s0,00 m/s2.3 Lux
06:17 AM20,0 ºC59 %959 hPa0,00 l/m2 67,5º ENE 0,00 m/s0,08 m/s2.2 Lux
06:12 AM20,0 ºC59 %959 hPa0,00 l/m2 45º NE 0,00 m/s0,08 m/s2.3 Lux
06:07 AM19,9 ºC59 %959 hPa0,00 l/m2 45º NE 0,00 m/s0,08 m/s2.2 Lux
06:02 AM19,9 ºC58 %959 hPa0,00 l/m2 67,5º ENE 0,00 m/s0,00 m/s2.3 Lux
05:57 AM20,0 ºC57 %959 hPa0,00 l/m2 135º SE 0,00 m/s0,08 m/s2.2 Lux
05:52 AM20,1 ºC57 %959 hPa0,00 l/m2 0º N 0,00 m/s0,00 m/s2.3 Lux
05:47 AM20,2 ºC57 %959 hPa0,00 l/m2 337,5º NNO 0,02 m/s0,16 m/s2.3 Lux
05:42 AM20,5 ºC56 %959 hPa0,00 l/m2 67,5º ENE 0,02 m/s0,08 m/s2.2 Lux
05:37 AM20,6 ºC55 %959 hPa0,00 l/m2 67,5º ENE 0,00 m/s0,08 m/s2.2 Lux
05:32 AM20,6 ºC55 %959 hPa0,00 l/m2 45º NE 0,00 m/s0,08 m/s2.3 Lux
05:27 AM20,4 ºC55 %959 hPa0,00 l/m2 67,5º ENE 0,00 m/s0,00 m/s2.3 Lux
05:22 AM20,4 ºC55 %959 hPa0,00 l/m2 67,5º ENE 0,00 m/s0,00 m/s2.2 Lux
05:17 AM20,6 ºC54 %959 hPa0,00 l/m2 67,5º ENE 0,00 m/s0,00 m/s2.2 Lux
05:12 AM20,6 ºC54 %959 hPa0,00 l/m2 67,5º ENE 0,00 m/s0,00 m/s2.3 Lux
05:07 AM20,4 ºC55 %959 hPa0,00 l/m2 67,5º ENE 0,02 m/s0,24 m/s2.3 Lux
05:02 AM20,6 ºC54 %959 hPa0,00 l/m2 67,5º ENE 0,00 m/s0,00 m/s2.2 Lux
04:57 AM20,8 ºC53 %959 hPa0,00 l/m2 45º NE 0,04 m/s0,24 m/s2.2 Lux
04:52 AM21,0 ºC53 %959 hPa0,00 l/m2 67,5º ENE 0,00 m/s0,00 m/s2.2 Lux
04:47 AM20,5 ºC55 %959 hPa0,00 l/m2 45º NE 0,01 m/s0,08 m/s2.2 Lux
04:42 AM20,6 ºC54 %959 hPa0,00 l/m2 67,5º ENE 0,00 m/s0,00 m/s2.2 Lux
04:37 AM20,3 ºC55 %959 hPa0,00 l/m2 67,5º ENE 0,00 m/s0,00 m/s2.3 Lux
04:32 AM20,3 ºC55 %959 hPa0,00 l/m2 67,5º ENE 0,00 m/s0,00 m/s2.3 Lux
04:27 AM20,4 ºC54 %959 hPa0,00 l/m2 45º NE 0,00 m/s0,08 m/s2.3 Lux
04:22 AM20,7 ºC54 %959 hPa0,00 l/m2 67,5º ENE 0,00 m/s0,08 m/s2.3 Lux
04:17 AM20,6 ºC54 %959 hPa0,00 l/m2 67,5º ENE 0,05 m/s0,64 m/s2.2 Lux
04:12 AM20,4 ºC54 %959 hPa0,00 l/m2 67,5º ENE 0,02 m/s0,24 m/s2.3 Lux
04:07 AM20,8 ºC53 %959 hPa0,00 l/m2 202,5º SSO 0,12 m/s0,72 m/s2.2 Lux
04:02 AM20,7 ºC54 %959 hPa0,00 l/m2 225º SO 0,06 m/s0,56 m/s2.2 Lux
03:57 AM20,5 ºC54 %959 hPa0,00 l/m2 67,5º ENE 0,00 m/s0,00 m/s2.3 Lux
03:52 AM20,4 ºC54 %959 hPa0,00 l/m2 157,5º SSE 0,00 m/s0,00 m/s2.2 Lux
03:47 AM20,6 ºC54 %959 hPa0,00 l/m2 157,5º SSE 0,00 m/s0,00 m/s2.3 Lux
03:42 AM20,4 ºC54 %959 hPa0,00 l/m2 157,5º SSE 0,00 m/s0,00 m/s2.2 Lux
03:37 AM20,6 ºC53 %959 hPa0,00 l/m2 157,5º SSE 0,00 m/s0,00 m/s2.3 Lux
03:32 AM20,8 ºC53 %959 hPa0,00 l/m2 45º NE 0,00 m/s0,00 m/s2.2 Lux
03:27 AM20,2 ºC54 %959 hPa0,00 l/m2 67,5º ENE 0,00 m/s0,00 m/s2.2 Lux
03:22 AM20,2 ºC55 %959 hPa0,00 l/m2 157,5º SSE 0,00 m/s0,00 m/s2.3 Lux
03:17 AM20,4 ºC54 %959 hPa0,00 l/m2 0º N 0,00 m/s0,00 m/s2.2 Lux
03:12 AM20,6 ºC53 %959 hPa0,00 l/m2 67,5º ENE 0,00 m/s0,00 m/s2.3 Lux
03:07 AM20,8 ºC53 %959 hPa0,00 l/m2 45º NE 0,00 m/s0,00 m/s2.3 Lux
03:02 AM20,8 ºC53 %959 hPa0,00 l/m2 45º NE 0,00 m/s0,00 m/s2.2 Lux
02:57 AM20,7 ºC53 %959 hPa0,00 l/m2 45º NE 0,00 m/s0,00 m/s2.2 Lux
02:52 AM21,0 ºC53 %959 hPa0,00 l/m2 0º N 0,10 m/s0,64 m/s2.2 Lux
02:47 AM21,0 ºC53 %959 hPa0,00 l/m2 67,5º ENE 0,14 m/s0,88 m/s2.2 Lux
02:42 AM20,8 ºC54 %959 hPa0,00 l/m2 67,5º ENE 0,02 m/s0,24 m/s2.3 Lux
02:37 AM21,2 ºC53 %959 hPa0,00 l/m2 67,5º ENE 0,01 m/s0,16 m/s2.3 Lux
02:32 AM20,8 ºC55 %959 hPa0,00 l/m2 0º N 0,00 m/s0,08 m/s2.2 Lux
02:27 AM21,1 ºC54 %959 hPa0,00 l/m2 0º N 0,01 m/s0,24 m/s2.3 Lux
02:22 AM21,2 ºC53 %959 hPa0,00 l/m2 337,5º NNO 0,00 m/s0,00 m/s2.3 Lux
02:17 AM22,4 ºC49 %959 hPa0,00 l/m2 67,5º ENE 0,27 m/s1,61 m/s2.2 Lux
02:12 AM22,5 ºC48 %959 hPa0,00 l/m2 67,5º ENE 0,00 m/s0,00 m/s2.2 Lux
02:07 AM22,7 ºC48 %959 hPa0,00 l/m2 135º SE 0,00 m/s0,00 m/s2.3 Lux
02:02 AM22,5 ºC49 %959 hPa0,00 l/m2 67,5º ENE 0,00 m/s0,00 m/s2.2 Lux
01:57 AM22,5 ºC49 %959 hPa0,00 l/m2 135º SE 0,00 m/s0,00 m/s2.2 Lux
01:52 AM22,5 ºC48 %959 hPa0,00 l/m2 67,5º ENE 0,00 m/s0,00 m/s2.3 Lux
01:47 AM22,3 ºC49 %959 hPa0,00 l/m2 67,5º ENE 0,00 m/s0,00 m/s2.2 Lux
01:42 AM22,3 ºC49 %959 hPa0,00 l/m2 135º SE 0,00 m/s0,00 m/s2.3 Lux
01:37 AM22,4 ºC49 %959 hPa0,00 l/m2 135º SE 0,00 m/s0,00 m/s2.2 Lux
01:32 AM21,9 ºC51 %959 hPa0,00 l/m2 45º NE 0,00 m/s0,00 m/s2.3 Lux
01:27 AM21,8 ºC51 %959 hPa0,00 l/m2 135º SE 0,00 m/s0,00 m/s2.3 Lux
01:22 AM21,8 ºC51 %959 hPa0,00 l/m2 135º SE 0,00 m/s0,00 m/s2.3 Lux
01:17 AM22,0 ºC50 %959 hPa0,00 l/m2 135º SE 0,00 m/s0,00 m/s2.3 Lux
01:12 AM22,2 ºC50 %959 hPa0,00 l/m2 337,5º NNO 0,00 m/s0,00 m/s2.3 Lux
01:07 AM22,3 ºC49 %959 hPa0,00 l/m2 337,5º NNO 0,00 m/s0,00 m/s2.3 Lux
01:02 AM22,3 ºC49 %959 hPa0,00 l/m2 0º N 0,27 m/s1,04 m/s2.3 Lux
12:57 AM22,9 ºC47 %959 hPa0,00 l/m2 337,5º NNO 0,01 m/s0,08 m/s2.2 Lux
12:52 AM23,1 ºC47 %959 hPa0,00 l/m2 0º N 0,00 m/s0,00 m/s2.2 Lux
12:47 AM23,2 ºC46 %959 hPa0,00 l/m2 67,5º ENE 0,00 m/s0,00 m/s2.2 Lux
12:42 AM23,1 ºC47 %959 hPa0,00 l/m2 67,5º ENE 0,00 m/s0,00 m/s2.2 Lux
12:37 AM23,1 ºC47 %959 hPa0,00 l/m2 337,5º NNO 0,00 m/s0,00 m/s2.2 Lux
12:32 AM23,4 ºC46 %959 hPa0,00 l/m2 67,5º ENE 0,00 m/s0,00 m/s2.3 Lux
12:26 AM24,0 ºC45 %959 hPa0,00 l/m2 67,5º ENE 0,00 m/s0,00 m/s2.2 Lux
12:21 AM24,2 ºC44 %959 hPa0,00 l/m2 45º NE 0,00 m/s0,00 m/s2.3 Lux
12:16 AM24,9 ºC42 %959 hPa0,00 l/m2 337,5º NNO 0,00 m/s0,08 m/s2.3 Lux
12:11 AM25,0 ºC42 %959 hPa0,00 l/m2 67,5º ENE 0,03 m/s0,24 m/s2.3 Lux
12:06 AM25,0 ºC42 %959 hPa0,00 l/m2 315º NO 0,24 m/s1,28 m/s2.2 Lux
12:01 AM25,0 ºC41 %959 hPa0,00 l/m2 337,5º NNO 0,30 m/s0,96 m/s2.2 Lux
WeatherStation © 2018